TimeCDT,TemperatureF,Dew PointF,Humidity,Sea Level PressureIn,VisibilityMPH,Wind Direction,Wind SpeedMPH,Gust SpeedMPH,PrecipitationIn,Events,Conditions,WindDirDegrees,DateUTC
12:13 AM,60.8,57.2,88,29.89,10.0,Calm,Calm,-,N/A,Thunderstorm,Thunderstorm,0,2013-06-12 05:13:00
12:32 AM,60.8,57.2,88,29.89,10.0,ENE,5.8,-,N/A,Thunderstorm,Thunderstorm,60,2013-06-12 05:32:00
12:53 AM,60.8,55.4,82,29.87,10.0,ENE,6.9,-,N/A,Thunderstorm,Clear,70,2013-06-12 05:53:00
1:13 AM,62.6,53.6,72,29.86,10.0,East,4.6,-,N/A,Thunderstorm,Thunderstorm,100,2013-06-12 06:13:00
1:32 AM,64.4,53.6,68,29.86,10.0,East,4.6,-,N/A,,Scattered Clouds,90,2013-06-12 06:32:00
1:53 AM,64.4,53.6,68,29.85,10.0,Calm,Calm,-,N/A,,Mostly Cloudy,0,2013-06-12 06:53:00
2:13 AM,64.4,53.6,68,29.84,10.0,East,4.6,-,N/A,,Overcast,90,2013-06-12 07:13:00
2:32 AM,66.2,51.8,60,29.84,10.0,East,3.5,-,N/A,,Overcast,100,2013-06-12 07:32:00
2:53 AM,66.2,51.8,60,29.85,10.0,Calm,Calm,-,N/A,,Mostly Cloudy,0,2013-06-12 07:53:00
3:13 AM,64.4,51.8,64,29.86,10.0,Calm,Calm,-,N/A,,Mostly Cloudy,0,2013-06-12 08:13:00
3:32 AM,62.6,51.8,68,29.85,10.0,Calm,Calm,-,N/A,,Overcast,0,2013-06-12 08:32:00
3:53 AM,60.8,53.6,77,29.85,10.0,ESE,3.5,-,N/A,,Overcast,110,2013-06-12 08:53:00
4:12 AM,64.4,51.8,64,29.85,10.0,East,4.6,-,N/A,,Mostly Cloudy,90,2013-06-12 09:12:00
4:33 AM,64.4,51.8,64,29.85,10.0,ESE,4.6,-,N/A,,Overcast,110,2013-06-12 09:33:00
4:53 AM,64.4,51.8,64,29.82,10.0,East,8.1,-,N/A,,Overcast,100,2013-06-12 09:53:00
5:12 AM,64.4,51.8,64,29.82,10.0,East,6.9,-,N/A,Thunderstorm,Overcast,100,2013-06-12 10:12:00
5:33 AM,64.4,51.8,64,29.83,10.0,ESE,6.9,-,N/A,,Overcast,110,2013-06-12 10:33:00
5:53 AM,64.4,51.8,64,29.85,10.0,ESE,3.5,-,N/A,,Overcast,110,2013-06-12 10:53:00
6:12 AM,64.4,51.8,64,29.86,10.0,Calm,Calm,-,N/A,,Overcast,0,2013-06-12 11:12:00
6:33 AM,64.4,53.6,68,29.95,10.0,NNW,16.1,-,N/A,,Overcast,330,2013-06-12 11:33:00
6:53 AM,62.6,53.6,72,29.95,10.0,WNW,15.0,21.9,N/A,Rain-Thunderstorm,Rain,300,2013-06-12 11:53:00
7:12 AM,60.8,53.6,77,29.93,10.0,NW,10.4,-,N/A,Thunderstorm,Unknown,310,2013-06-12 12:12:00
7:33 AM,59.0,53.6,82,29.90,10.0,East,9.2,-,N/A,Rain,Light Rain,90,2013-06-12 12:33:00
7:52 AM,59.0,53.6,82,29.85,10.0,ESE,9.2,-,N/A,Rain,Light Rain,120,2013-06-12 12:52:00
8:13 AM,59.0,53.6,82,29.83,10.0,East,9.2,-,N/A,,Light Drizzle,100,2013-06-12 13:13:00
8:33 AM,60.8,53.6,77,29.80,10.0,East,12.7,18.4,N/A,,Clear,100,2013-06-12 13:33:00
8:52 AM,60.8,53.6,77,29.80,10.0,East,5.8,-,N/A,,Scattered Clouds,100,2013-06-12 13:52:00
9:13 AM,60.8,53.6,77,29.78,10.0,East,8.1,-,N/A,,Scattered Clouds,90,2013-06-12 14:13:00
9:33 AM,62.6,53.6,72,29.79,10.0,East,11.5,16.1,N/A,,Scattered Clouds,100,2013-06-12 14:33:00
9:52 AM,62.6,53.6,72,29.81,10.0,SE,8.1,-,N/A,Rain,Light Rain,130,2013-06-12 14:52:00
10:13 AM,62.6,53.6,72,29.83,10.0,SSE,5.8,-,N/A,,Scattered Clouds,150,2013-06-12 15:13:00
10:33 AM,64.4,55.4,73,29.86,10.0,West,3.5,-,N/A,,Mostly Cloudy,260,2013-06-12 15:33:00
10:52 AM,64.4,55.4,73,29.89,10.0,WNW,6.9,-,N/A,,Overcast,300,2013-06-12 15:52:00
11:13 AM,64.4,55.4,73,29.89,10.0,North,3.5,-,N/A,,Overcast,10,2013-06-12 16:13:00
11:32 AM,66.2,57.2,73,29.89,10.0,North,4.6,-,N/A,Rain,Light Rain,10,2013-06-12 16:32:00
11:52 AM,66.2,57.2,73,29.89,10.0,North,6.9,-,N/A,,Scattered Clouds,360,2013-06-12 16:52:00
12:13 PM,68.0,57.2,68,29.89,10.0,North,6.9,-,N/A,,Scattered Clouds,10,2013-06-12 17:13:00
12:32 PM,69.8,55.4,60,29.88,10.0,North,10.4,-,N/A,,Scattered Clouds,360,2013-06-12 17:32:00
12:52 PM,69.8,55.4,60,29.88,10.0,NNE,9.2,-,N/A,,Mostly Cloudy,20,2013-06-12 17:52:00
1:13 PM,69.8,53.6,56,29.89,10.0,NNE,5.8,-,N/A,,Overcast,20,2013-06-12 18:13:00
1:32 PM,69.8,53.6,56,29.87,10.0,NNE,10.4,-,N/A,,Mostly Cloudy,20,2013-06-12 18:32:00
1:53 PM,69.8,55.4,60,29.88,10.0,North,9.2,-,N/A,Rain,Light Rain,10,2013-06-12 18:53:00
2:13 PM,69.8,55.4,60,29.89,10.0,North,10.4,-,N/A,Rain,Light Rain,10,2013-06-12 19:13:00
2:32 PM,69.8,57.2,64,29.89,10.0,North,9.2,16.1,N/A,Rain,Light Rain,360,2013-06-12 19:32:00
2:53 PM,66.2,60.8,83,29.90,10.0,North,9.2,-,N/A,Rain,Light Rain,350,2013-06-12 19:53:00
3:13 PM,66.2,60.8,83,29.91,10.0,NNW,5.8,-,N/A,Rain,Light Rain,340,2013-06-12 20:13:00
3:32 PM,66.2,60.8,83,29.91,10.0,NNW,5.8,-,N/A,Rain,Light Rain,340,2013-06-12 20:32:00
3:53 PM,64.4,60.8,88,29.90,10.0,North,5.8,-,N/A,Rain,Light Rain,360,2013-06-12 20:53:00
4:13 PM,64.4,60.8,88,29.91,10.0,North,4.6,-,N/A,Rain,Light Rain,360,2013-06-12 21:13:00
4:32 PM,66.2,60.8,83,29.91,10.0,North,4.6,-,N/A,Rain,Light Rain,10,2013-06-12 21:32:00
4:53 PM,66.2,59.0,78,29.91,10.0,NNE,5.8,-,N/A,Rain,Light Rain,30,2013-06-12 21:53:00
5:13 PM,66.2,60.8,83,29.92,10.0,North,5.8,-,N/A,Rain,Light Rain,10,2013-06-12 22:13:00
5:32 PM,68.0,60.8,78,29.92,10.0,NNE,6.9,-,N/A,Rain,Light Rain,30,2013-06-12 22:32:00
5:53 PM,69.8,59.0,68,29.92,10.0,NNE,9.2,-,N/A,Rain,Light Rain,20,2013-06-12 22:53:00
6:13 PM,69.8,55.4,60,29.92,10.0,North,13.8,19.6,N/A,,Clear,10,2013-06-12 23:13:00
6:32 PM,71.6,55.4,57,29.92,10.0,NNE,11.5,18.4,N/A,,Clear,20,2013-06-12 23:32:00
6:53 PM,69.8,53.6,56,29.92,10.0,NNE,12.7,17.3,N/A,,Scattered Clouds,20,2013-06-12 23:53:00
7:12 PM,71.6,55.4,57,29.93,10.0,NNE,11.5,21.9,N/A,,Scattered Clouds,20,2013-06-13 00:12:00
7:32 PM,69.8,53.6,56,29.93,10.0,NNE,10.4,-,N/A,,Clear,20,2013-06-13 00:32:00
7:53 PM,69.8,55.4,60,29.94,10.0,NNE,9.2,-,N/A,,Clear,20,2013-06-13 00:53:00
8:12 PM,69.8,55.4,60,29.95,10.0,North,6.9,-,N/A,,Clear,10,2013-06-13 01:12:00
8:33 PM,66.2,55.4,68,29.96,10.0,North,8.1,-,N/A,,Clear,360,2013-06-13 01:33:00
8:52 PM,64.4,55.4,73,29.97,10.0,North,8.1,-,N/A,,Clear,350,2013-06-13 01:52:00
9:12 PM,64.4,55.4,73,29.98,10.0,North,8.1,-,N/A,,Clear,350,2013-06-13 02:12:00
9:33 PM,64.4,53.6,68,29.98,10.0,North,8.1,-,N/A,,Clear,360,2013-06-13 02:33:00
9:52 PM,64.4,53.6,68,29.99,10.0,NNE,8.1,-,N/A,,Clear,20,2013-06-13 02:52:00
10:13 PM,64.4,53.6,68,30.00,10.0,North,8.1,-,N/A,,Clear,10,2013-06-13 03:13:00
10:33 PM,62.6,53.6,72,30.00,10.0,North,8.1,-,N/A,,Clear,10,2013-06-13 03:33:00
10:52 PM,59.0,51.8,77,30.02,10.0,North,9.2,-,N/A,,Clear,360,2013-06-13 03:52:00
11:13 PM,59.0,53.6,82,30.03,10.0,North,9.2,-,N/A,,Clear,360,2013-06-13 04:13:00
11:32 PM,59.0,53.6,82,30.04,10.0,North,9.2,-,N/A,,Scattered Clouds,360,2013-06-13 04:32:00
11:52 PM,57.2,51.8,82,30.04,10.0,North,8.1,-,N/A,,Mostly Cloudy,360,2013-06-13 04:52:00